Regional Weather Roundup
Issued by NWS

Home | Current Version | Previous Version | Graphics & Text | Print | Product List | Glossary On
Versions: 1 2 3 4 5 6 7 8 9 10 11 12 13 14 15 16 17 18 19 20 21 22 23 24 25 26 27 28 29 30 31 32 33 34 35 36 37 38 39 40 41 42 43 44 45 46 47 48 49 50
000
ASUS43 KLOT 250610
RWRIL

ILLINOIS REGIONAL WEATHER ROUNDUP
NATIONAL WEATHER SERVICE CHICAGO/ROMEOVILLE IL
1200 AM CST SUN JAN 25 2015

NOTE: "FAIR" INDICATES FEW OR NO CLOUDS BELOW 12,000 FEET WITH NO
SIGNIFICANT WEATHER AND/OR OBSTRUCTIONS TO VISIBILITY.

* THESE STATIONS ARE NOT UNDER NWS QUALITY CONTROL. THEY ALSO MAY NOT
  REPORT WEATHER SUCH AS PRECIPITATION OR FOG.

ILZ001-002-007-009-015-016-024-250700-
NORTHWEST ILLINOIS

CITY           SKY/WX    TMP DP  RH WIND       PRES   REMARKS
MOLINE         CLOUDY    33  30  88 E5        29.59F WCI  29
6HR MIN TEMP:  32; 6HR MAX TEMP:  41;

STERLING*      CLOUDY    34  30  86 E5        29.62S WCI  30
SAVANNA*       CLOUDY    34  32  93 E6        29.61S WCI  29
$$

ILZ003-004-008-010-011-017-018-250700-
NORTH CENTRAL ILLINOIS

CITY           SKY/WX    TMP DP  RH WIND       PRES   REMARKS
ROCKFORD       CLOUDY    33  29  85 E10       29.66F WCI  25
6HR MIN TEMP:  29; 6HR MAX TEMP:  33;

FREEPORT*      CLOUDY    31  30  96 E8        29.65F FOG     WCI  24
ROCHELLE*      CLOUDY    33  32  98 E8        29.64S WCI  25
DE KALB*       MOCLDY    31  30  96 E9        29.65F FOG     WCI  23
PERU*          MOCLDY    34  33  93 E6        29.63F WCI  29
$$

ILZ005-006-012>014-019>023-250700-
NORTHEAST ILLINOIS

CITY           SKY/WX    TMP DP  RH WIND       PRES   REMARKS
CHICAGO-OHARE  CLOUDY    32  29  88 NE6       29.67S WCI  26
6HR MIN TEMP:  31; 6HR MAX TEMP:  33;

CHICAGO-MIDWAY CLOUDY    35  31  85 E5        29.68S WCI  31
6HR MIN TEMP:  35; 6HR MAX TEMP:  37;

AURORA         CLOUDY    33  29  85 E8        29.66F FOG     WCI  26
6HR MIN TEMP:  30; 6HR MAX TEMP:  33;

LANSING*       MOCLDY    32  32  99 NE5       29.68F FOG     WCI  28
JOLIET*        MOCLDY    30  30  97 CALM      29.67S FOG
WAUKEGAN       PTCLDY    28  26  92 CALM      29.67S FOG
6HR MIN TEMP:  28; 6HR MAX TEMP:  33;

DUPAGE AIRPORT PTCLDY    32  29  88 E6        29.66F WCI  26
6HR MIN TEMP:  29; 6HR MAX TEMP:  33;

KANKAKEE*      PTCLDY    30  29  97 E3        29.67F FOG
WHEELING       CLOUDY    32  29  88 N6        29.69S FOG     WCI  26
6HR MIN TEMP:  31; 6HR MAX TEMP:  35;

MORRIS*        PTCLDY    34  34 100 NE3       29.65F FOG
ROMEOVILLE*    MOCLDY    32  32 100 E6        29.67S FOG     WCI  26
NORTHERLY ISL    N/A     33  30  89 NE5         N/A  WCI  29
$$

LMZ740>746-250700-
SOUTHERN LAKE MICHIGAN

STATION/POSITION SKY/WX   TEMP    WIND        PRES    VSBY  WAVE
                          AIR SEA DIR/SP/G                  HT/PER
                          (F)     (DEG/KT/KT) (MB)    (MI)  (FT/S)
WAUKEGAN HARBOR            32        CALM       N/A
HARRISON CRIB              32      10/  5/  6   N/A
BURNHAM HARBOR             33      10/  4/  9   N/A
CALUMET HARBOR             33      30/  4/  6   N/A
MICHIGAN CITY              35     170/  1/  1   N/A
$$

ILZ025>027-034>036-040-047-049-050-058-095>099-250700-
WEST-CENTRAL ILLINOIS

CITY           SKY/WX    TMP DP  RH WIND       PRES   REMARKS
QUINCY         CLOUDY    42  32  67 SW6       29.61F
GALESBURG*     CLOUDY    35  32  88 S3        29.60F
MACOMB*        CLOUDY    41  34  76 S8        29.63F
JACKSONVILLE*  CLOUDY    45  33  63 S8        29.63F
PITTSFIELD*    CLOUDY    46  33  60 SW7       29.64F
$$

ILZ028>032-037-038-041>044-048-051>054-059>061-250700-
CENTRAL ILLINOIS

CITY           SKY/WX    TMP DP  RH WIND       PRES   REMARKS
PONTIAC        CLOUDY    34  33  96 SE3       29.65F
BLOOMINGTON    CLOUDY    34  32  92 S7        29.65F WCI  28
DECATUR        CLOUDY    38  32  79 S7        29.67F WCI  33
PEORIA         MOCLDY    37  32  82 S5        29.63F WCI  33
6HR MIN TEMP:  37; 6HR MAX TEMP:  42;

LACON*         MOCLDY    37  32  82 SE5       29.62F WCI  33
LINCOLN*       CLOUDY    38  33  80 S5        29.65F WCI  35
SPRINGFIELD    MOCLDY    42  32  67 SW7       29.65F
6HR MIN TEMP:  37; 6HR MAX TEMP:  45;

TAYLORVILLE    CLOUDY    37  32  81 S9        29.67S WCI  31
$$

ILZ033-039-045-046-055>057-062-063-250700-
EAST-CENTRAL ILLINOIS

CITY           SKY/WX    TMP DP  RH WIND       PRES   REMARKS
CHAMPAIGN      MOCLDY    36  32  85 S8        29.67F WCI  30
DANVILLE*      MOCLDY    34  32  92 S3        29.66F
RANTOUL*       PTCLDY    35  33  92 SE6       29.67F WCI  30
MATTOON        CLOUDY    39  31  72 S8        29.68F WCI  33
PARIS*         CLOUDY    37  33  87 S6        29.70F WCI  32
$$

ILZ079-100>102-250700-
SOUTHWEST ILLINOIS

CITY           SKY/WX    TMP DP  RH WIND       PRES   REMARKS
ALTON          MOCLDY    42  30  62 S9        29.68F
BELLEVILLE     MOCLDY    42  32  68 S3        29.69F
CAHOKIA*       MOCLDY    51  32  48 SW7       29.69F
SPARTA*        CLOUDY    45  32  60 S10       29.73F
$$

ILZ064>066-069>071-074>076-080>082-084>086-088>090-092>094-250700-
SOUTH-CENTRAL ILLINOIS

CITY           SKY/WX    TMP DP  RH WIND       PRES   REMARKS
CARBONDALE     CLOUDY    40  31  70 S9        29.75F
6HR MIN TEMP:  39; 6HR MAX TEMP:  44;

CAIRO*         MOCLDY    46  34  62 S10       29.81F
EFFINGHAM*     CLOUDY    41  29  64 S3        29.72F
MARION         CLOUDY    45  32  61 S8        29.76F
MT. VERNON     CLOUDY    37  30  75 S6        29.74S WCI  33
CENTRALIA*     CLOUDY    41  32  70 S10       29.71F
SALEM*         CLOUDY    44  33  67 S8        29.72S
METROPOLIS*    MOCLDY    44  33  66 SW7       29.80F
$$

ILZ067-068-072-073-078-083-087-091-250700-
SOUTHEAST ILLINOIS

CITY           SKY/WX    TMP DP  RH WIND       PRES   REMARKS
LAWRENCEVILLE  CLOUDY    37  32  82 S7        29.74F WCI  32
FLORA*         CLOUDY    37  32  81 S8        29.73S WCI  31
FAIRFIELD*     CLOUDY    39  33  77 S3        29.73F
HARRISBURG*    CLOUDY    43  33  68 SW6       29.78F
ROBINSON*      CLOUDY    38  32  78 S8        29.74F WCI  32
CARMI*         CLOUDY    45  36  70 S7        29.75F
$$

ABBREVIATIONS USED IN REMARKS
   TC - TEMPERATURE IN CELSIUS
  WCI - WIND CHILL INDEX
   HX - HEAT INDEX
  VSB - VISIBILITY
$$



USA.gov is the U.S. government's official web portal to all federal, state and local government web resources and services.